リニア彗星

P/2015 TP200 ( LINEAR )

English version
Home page
Updated on March 13, 2017

---------------------------------------------------------------------

・ プロフィール

発見日 2015年10月10日
発見光度 19.7等
発見者 LINEAR survey (Space Surveillance Telescope, Atom Peak, White Sands Missile Range, NM, USA)

・ 写真集

・ 軌道要素

Epoch 2016 Oct. 19.0 TT = JDT 2457680.5
T 2016 Oct. 28.20174 TT                                 MPCW
q   3.3852984            (2000.0)            P               Q
n   0.04998845     Peri.   82.73532     +0.00645601     -0.99980762
a   7.2983210      Node     6.97552     +0.84672550     -0.00438798
e   0.5361538      Incl.    8.77231     +0.53199083     +0.01911721
P  19.72
From 160 observations 2015 Sept. 12-2016 Nov. 10, mean residual 0".5.

・ 光度変化

        m1 = 5.5 + 5 logΔ + 17.0 log r(t - 100)

---------------------------------------------------------------------

軌道要素はM.P.E.C. 2016-V116に掲載されたものです。
光度グラフはComet for Windowsで作成したものです。

---------------------------------------------------------------------

Copyright(C) Seiichi Yoshida (comet@aerith.net). All rights reserved.